Weather History for KMUT - January, 2014

Change the Weather History Date:

Thursday, January 16, 2014

  Actual Average (KIOW) Record (KIOW)
Temperature  
Mean Temperature 26 °F 22 °F  
Max Temperature 39 °F 30 °F 55 °F (1990)
Min Temperature 10 °F 14 °F -25 °F (2009)
Degree Days  
Heating Degree Days 40 43  
Month to date heating degree days 688  
Since 1 July heating degree days 3227  
Cooling Degree Days 0 0  
Month to date cooling degree days 0  
Year to date cooling degree days 0  
Moisture  
Dew Point 19 °F    
Average Humidity 67    
Maximum Humidity 87    
Minimum Humidity 52    
Precipitation  
Precipitation 0.00 in 0.03 in 1.31 in (1980)
Month to date precipitation 0.31  
Year to date precipitation 0.31  
Sea Level Pressure  
Sea Level Pressure 29.67 in    
Wind  
Wind Speed 16 mph (West)    
Max Wind Speed 31 mph    
Max Gust Speed 40 mph    
Visibility 10 miles    
Events Snow    
T = Trace of Precipitation, MM = Missing Value Source: NWS Daily Summary

Daily Weather History Graph

Daily Weather History Graph

Search for Another Location

Airport or City:

Trip Planner

Search our weather history database for the weather conditions in past years. The results will help you decide how hot, cold, wet, or windy it might be!

Date:

Astronomy

Jan. 16, 2014 Rise Set
Actual Time 7:27 AM CST 5:01 PM CST
Civil Twilight 6:57 AM CST 5:31 PM CST
Nautical Twilight 6:23 AM CST 6:05 PM CST
Astronomical Twilight 5:50 AM CST 6:38 PM CST
Moon 5:54 PM CST (1/16) 7:20 AM CST (1/16)
Length of Visible Light 10h 34m
Length of Day
9h 33m
Full, 100% of the Moon is Illuminated
Jan 16
Full
Jan 23
Last Quarter
Jan 30
New
Feb 6
First Quarter
Feb 14
Full

Hourly Weather History & Observations

Time (CST) Temp. Windchill Dew Point Humidity Pressure Visibility Wind Dir Wind Speed Gust Speed Precip Events Conditions
12:15 AM 28.4 °F 17.0 °F 14.0 °F 55% 29.73 in 10.0 mi South 15.0 mph - N/A   Overcast
12:35 AM 28.4 °F 16.6 °F 15.8 °F 59% 29.72 in 10.0 mi South 16.1 mph - N/A   Partly Cloudy
12:55 AM 28.4 °F 17.5 °F 15.8 °F 59% 29.71 in 10.0 mi South 13.8 mph 21.9 mph N/A   Scattered Clouds
1:15 AM 28.4 °F 16.2 °F 17.6 °F 64% 29.69 in 10.0 mi SSW 17.3 mph 26.5 mph N/A   Overcast
1:35 AM 28.4 °F 17.5 °F 19.4 °F 69% 29.71 in 10.0 mi SSW 13.8 mph 21.9 mph N/A   Overcast
1:55 AM 28.4 °F 17.0 °F 19.4 °F 69% 29.69 in 10.0 mi SSW 15.0 mph 23.0 mph N/A   Mostly Cloudy
2:15 AM 28.4 °F 16.6 °F 21.2 °F 74% 29.68 in 10.0 mi SSW 16.1 mph 21.9 mph N/A   Overcast
2:35 AM 28.4 °F 17.5 °F 21.2 °F 74% 29.66 in 10.0 mi South 13.8 mph 20.7 mph N/A   Overcast
2:55 AM 28.4 °F 18.0 °F 21.2 °F 74% 29.66 in 10.0 mi SSW 12.7 mph - N/A   Mostly Cloudy
3:15 AM 28.4 °F 18.5 °F 21.2 °F 74% 29.66 in 10.0 mi South 11.5 mph - N/A   Partly Cloudy
3:35 AM 28.4 °F 19.7 °F 21.2 °F 74% 29.65 in 10.0 mi South 9.2 mph - N/A   Scattered Clouds
3:55 AM 28.4 °F 19.1 °F 21.2 °F 74% 29.63 in 10.0 mi South 10.4 mph - N/A   Overcast
4:15 AM 30.2 °F 22.6 °F 21.2 °F 69% 29.62 in 10.0 mi South 8.1 mph 13.8 mph N/A   Overcast
4:35 AM 30.2 °F 22.6 °F 21.2 °F 69% 29.61 in 10.0 mi South 8.1 mph - N/A   Overcast
4:55 AM 30.2 °F 22.6 °F 23.0 °F 75% 29.61 in 10.0 mi South 8.1 mph - N/A   Overcast
5:15 AM 30.2 °F 22.6 °F 23.0 °F 75% 29.59 in 10.0 mi South 8.1 mph - N/A   Overcast
5:35 AM 30.2 °F 24.3 °F 23.0 °F 75% 29.59 in 10.0 mi South 5.8 mph - N/A   Mostly Cloudy
5:55 AM 30.2 °F 23.4 °F 23.0 °F 75% 29.58 in 10.0 mi SSW 6.9 mph - N/A   Partly Cloudy
6:15 AM 32.0 °F 25.6 °F 23.0 °F 69% 29.58 in 10.0 mi SSW 6.9 mph - N/A   Mostly Cloudy
6:35 AM 32.0 °F 24.8 °F 23.0 °F 69% 29.57 in 10.0 mi SW 8.1 mph - N/A   Overcast
6:55 AM 32.0 °F 23.0 °F 23.0 °F 69% 29.57 in 10.0 mi SW 11.5 mph - N/A   Overcast
7:15 AM 32.0 °F 23.6 °F 23.0 °F 69% 29.58 in 10.0 mi SW 10.4 mph 17.3 mph N/A   Overcast
7:35 AM 33.8 °F 24.8 °F 24.8 °F 70% 29.57 in 10.0 mi SW 12.7 mph - N/A   Overcast
7:55 AM 33.8 °F 24.8 °F 24.8 °F 70% 29.57 in 10.0 mi WSW 12.7 mph - N/A   Overcast
8:15 AM 33.8 °F 24.8 °F 24.8 °F 70% 29.58 in 10.0 mi WSW 12.7 mph - N/A   Overcast
8:35 AM 35.6 °F 26.2 °F 24.8 °F 65% 29.58 in 10.0 mi WSW 15.0 mph 20.7 mph N/A   Overcast
8:55 AM 37.4 °F 28.5 °F 26.6 °F 65% 29.58 in 10.0 mi West 15.0 mph 23.0 mph N/A   Overcast
9:15 AM 39.2 °F 30.2 °F 26.6 °F 61% 29.58 in 10.0 mi West 17.3 mph - N/A   Overcast
9:35 AM 39.2 °F 28.7 °F 26.6 °F 61% 29.58 in 10.0 mi West 23.0 mph - N/A   Overcast
9:55 AM 39.2 °F 30.2 °F 28.4 °F 65% 29.59 in 10.0 mi West 17.3 mph 25.3 mph N/A   Mostly Cloudy
10:15 AM 39.2 °F 30.2 °F 30.2 °F 70% 29.58 in 10.0 mi West 17.3 mph 27.6 mph N/A   Scattered Clouds
10:35 AM 39.2 °F 29.6 °F 30.2 °F 70% 29.58 in 10.0 mi West 19.6 mph 27.6 mph N/A   Mostly Cloudy
10:55 AM 39.2 °F 28.3 °F 30.2 °F 70% 29.58 in 10.0 mi West 25.3 mph 32.2 mph N/A   Overcast
11:15 AM 39.2 °F 29.3 °F 32.0 °F 75% 29.58 in 10.0 mi West 20.7 mph 31.1 mph N/A   Mostly Cloudy
11:35 AM 37.4 °F 26.6 °F 32.0 °F 81% 29.57 in 9.0 mi West 21.9 mph 28.8 mph N/A   Overcast
11:55 AM 37.4 °F 26.9 °F 32.0 °F 81% 29.57 in 10.0 mi West 20.7 mph 31.1 mph N/A   Overcast
12:15 PM 35.6 °F 24.2 °F 32.0 °F 87% 29.58 in 5.0 mi WNW 21.9 mph 34.5 mph N/A Snow Light Snow
12:35 PM 35.6 °F 23.4 °F 30.2 °F 81% 29.59 in 8.0 mi WNW 25.3 mph - N/A   Mostly Cloudy
12:55 PM 35.6 °F 23.2 °F 28.4 °F 75% 29.59 in 10.0 mi WNW 26.5 mph 40.3 mph N/A   Mostly Cloudy
1:15 PM 35.6 °F 23.7 °F 26.6 °F 70% 29.60 in 10.0 mi NW 24.2 mph 33.4 mph N/A   Mostly Cloudy
1:35 PM 35.6 °F 22.3 °F 21.2 °F 56% 29.61 in 10.0 mi NW 31.1 mph - N/A   Overcast
1:55 PM 35.6 °F 24.8 °F 23.0 °F 60% 29.61 in 10.0 mi WNW 19.6 mph 27.6 mph N/A   Mostly Cloudy
2:35 PM 35.6 °F 23.2 °F 21.2 °F 56% 29.63 in 10.0 mi NW 26.5 mph 34.5 mph N/A   Overcast
2:55 PM 35.6 °F 24.0 °F 19.4 °F 52% 29.65 in 10.0 mi NW 23.0 mph 32.2 mph N/A   Overcast
3:15 PM 33.8 °F 23.2 °F 21.2 °F 60% 29.66 in 10.0 mi NNW 17.3 mph 24.2 mph N/A   Overcast
3:35 PM 33.8 °F 21.9 °F 21.2 °F 60% 29.66 in 10.0 mi NW 21.9 mph 28.8 mph N/A   Overcast
3:55 PM 33.8 °F 23.5 °F 19.4 °F 56% 29.66 in 10.0 mi NW 16.1 mph 26.5 mph N/A   Overcast
4:15 PM 32.0 °F 23.6 °F 21.2 °F 64% 29.67 in 10.0 mi NW 10.4 mph 19.6 mph N/A   Overcast
4:35 PM 32.0 °F 23.0 °F 21.2 °F 64% 29.67 in 10.0 mi NW 11.5 mph - N/A   Overcast
4:55 PM 32.0 °F 23.6 °F 21.2 °F 64% 29.67 in 10.0 mi NW 10.4 mph - N/A   Overcast
5:15 PM 32.0 °F 23.6 °F 21.2 °F 64% 29.67 in 10.0 mi NNW 10.4 mph - N/A   Overcast
5:35 PM 30.2 °F 19.3 °F 21.2 °F 69% 29.68 in 10.0 mi NNW 15.0 mph - N/A   Overcast
5:55 PM 30.2 °F 19.3 °F 21.2 °F 69% 29.68 in 10.0 mi NNW 15.0 mph - N/A   Overcast
6:15 PM 28.4 °F 15.8 °F 17.6 °F 64% 29.70 in 5.0 mi NW 18.4 mph 26.5 mph N/A Snow Light Snow
6:35 PM 26.6 °F 12.0 °F 14.0 °F 59% 29.71 in 9.0 mi NW 23.0 mph 31.1 mph N/A Snow Light Snow
6:55 PM 24.8 °F 10.7 °F 14.0 °F 64% 29.72 in 10.0 mi NW 19.6 mph 27.6 mph N/A Snow Light Snow
7:15 PM 21.2 °F 5.2 °F 10.4 °F 63% 29.75 in 10.0 mi NW 21.9 mph 31.1 mph N/A   Overcast
7:35 PM 21.2 °F 5.6 °F 8.6 °F 58% 29.78 in 10.0 mi NW 20.7 mph 27.6 mph N/A   Overcast
7:55 PM 19.4 °F 3.2 °F 8.6 °F 63% 29.79 in 10.0 mi NW 20.7 mph 31.1 mph N/A   Overcast
8:15 PM 17.6 °F 0.1 °F 8.6 °F 68% 29.81 in 10.0 mi WNW 23.0 mph 31.1 mph N/A   Overcast
8:35 PM 15.8 °F -2.3 °F 5.0 °F 62% 29.82 in 10.0 mi NW 23.0 mph 34.5 mph N/A   Mostly Cloudy
8:55 PM 14.0 °F -4.3 °F 6.8 °F 73% 29.84 in 9.0 mi NW 21.9 mph 29.9 mph N/A Snow Light Snow
9:15 PM 14.0 °F -3.0 °F 5.0 °F 67% 29.85 in 10.0 mi WNW 18.4 mph 28.8 mph N/A Snow Light Snow
9:35 PM 14.0 °F -3.4 °F 3.2 °F 62% 29.86 in 10.0 mi WNW 19.6 mph 26.5 mph N/A   Overcast
9:55 PM 14.0 °F -2.5 °F 3.2 °F 62% 29.87 in 10.0 mi NW 17.3 mph 28.8 mph N/A   Overcast
10:15 PM 12.2 °F -7.1 °F 3.2 °F 67% 29.87 in 10.0 mi WNW 23.0 mph - N/A Snow Light Snow
10:35 PM 12.2 °F -5.8 °F 3.2 °F 67% 29.88 in 9.0 mi NW 19.6 mph 29.9 mph N/A Snow Light Snow
10:55 PM 12.2 °F -5.8 °F 3.2 °F 67% 29.88 in 10.0 mi NW 19.6 mph 26.5 mph N/A   Overcast
11:15 PM 12.2 °F -4.8 °F 3.2 °F 67% 29.88 in 10.0 mi NW 17.3 mph 23.0 mph N/A   Overcast
11:35 PM 12.2 °F -5.8 °F 1.4 °F 62% 29.89 in 10.0 mi NW 19.6 mph 27.6 mph N/A   Overcast
11:55 PM 10.4 °F -9.1 °F 1.4 °F 67% 29.88 in 10.0 mi WNW 21.9 mph 28.8 mph N/A   Overcast